Tracking 32963 objects as of 21-Jan-2026
HD Live streaming from Space Station
objects crossing your sky now

THOR ABLESTAR DEB *

Track THOR ABLESTAR DEB * now!
10-day predictions


NORAD ID: 19961
Int'l Code: 1961-015MJ
Perigee: 867.2 km
Apogee: 1,084.9 km
Inclination: 65.6 °
Period: 104.5 minutes
Semi major axis: 7347 km
RCS: 0.0125 m2 (small)
Launch date: June 29, 1961
Source: United States (US)
Launch site: AIR FORCE EASTERN TEST RANGE (AFETR)

Note: This is SATELLITE DEBRIS
Your satellite tracking list
Your tracking list is empty




NASA's NSSDC Master Catalog

Two Line Element Set (TLE):
1 19961U 61015MJ  26020.78843774  .00000438  00000-0  47289-3 0  9995
2 19961  65.6396 216.2074 0148174  69.2742 310.3775 13.78577961920203
Source of the keplerian elements: AFSPC